Location: ????????
(55.0808°N, 38.5463°E)
Time: 13:02:03
(UTC+00:00)

Cosmos 2266 Rocket - Pass Details

Date: 14 April 2024
Orbit: 934 x 1007 km, 82.9° (Epoch: 17 May)

Event Time Altitude Azimuth Distance (km) Brightness Sun altitude
Rises 01:43:20 0° 182° (S) 3,613 6.7 -6.3°
Reaches altitude 10° 01:45:49 10° 181° (S) 2,664 6.0 -5.9°
Maximum altitude 01:51:52 75° 97° (E) 978 4.3 -5.1°
Drops below altitude 10° 01:57:54 10° 14° (NNE) 2,659 6.9 -4.4°
Sets 02:00:24 0° 13° (NNE) 3,607 7.5 -4.0°
